Weather History for Whiteman AFB, MO

Change the Weather History Date:

Tuesday, March 12, 2013

  Actual Average Record
Temperature  
Mean Temperature 38 °F -  
Max Temperature 47 °F 49 °F 76 °F (2008)
Min Temperature 28 °F 30 °F 3 °F (1998)
Degree Days  
Heating Degree Days 28    
Moisture  
Dew Point 25 °F    
Average Humidity 64    
Maximum Humidity 81    
Minimum Humidity 43    
Precipitation  
Precipitation 0.00 in - - ()
Sea Level Pressure  
Sea Level Pressure 30.18 in    
Wind  
Wind Speed 8 mph (WNW)    
Max Wind Speed 25 mph    
Max Gust Speed 32 mph    
Visibility 10 miles    
Events      
Averages and records for this station are not official NWS values.
T = Trace of Precipitation, MM = Missing Value Source: NWS Daily Summary

Daily Weather History Graph

Daily Weather History Graph

Search for Another Location

Airport:

Trip Planner

Search our weather history database for the weather conditions in past years. The results will help you decide how hot, cold, wet, or windy it might be!

Date:

Astronomy

Mar. 12, 2013 Rise Set
Actual Time 7:29 AM CDT 7:18 PM CDT
Civil Twilight 7:03 AM CDT 7:45 PM CDT
Nautical Twilight 6:32 AM CDT 8:15 PM CDT
Astronomical Twilight 6:01 AM CDT 8:47 PM CDT
Moon 7:37 AM CDT (3/12) 8:33 PM CDT (3/12)
Length of Visible Light 12h 41m
Length of Day
11h 48m
New Moon, 1% of the Moon is Illuminated
Mar 12
New Moon
Mar 19
First Quarter
Mar 27
Full
Apr 2
Last Quarter
Apr 10
New

Hourly Weather History & Observations

Time (CDT) Temp. Windchill Dew Point Humidity Pressure Visibility Wind Dir Wind Speed Gust Speed Precip Events Conditions
12:58 AM 28.8 °F 22.6 °F 23.7 °F 81% 30.05 in 10.0 mi SW 5.8 mph - N/A   Clear
1:58 AM 28.4 °F - 23.4 °F 81% 30.05 in 10.0 mi West 2.3 mph - N/A   Clear
2:58 AM 29.3 °F - 23.5 °F 79% 30.07 in 10.0 mi WSW 2.3 mph - N/A   Clear
3:58 AM 30.7 °F 26.0 °F 22.8 °F 72% 30.06 in 10.0 mi West 4.6 mph - N/A   Clear
4:58 AM 29.7 °F 24.7 °F 23.0 °F 76% 30.08 in 10.0 mi WSW 4.6 mph - N/A   Clear
5:58 AM 29.7 °F 26.1 °F 23.0 °F 76% 30.11 in 10.0 mi WSW 3.5 mph - N/A   Clear
6:58 AM 30.0 °F 26.5 °F 21.2 °F 70% 30.14 in 10.0 mi West 3.5 mph - N/A   Partly Cloudy
7:58 AM 29.1 °F 21.3 °F 21.6 °F 73% 30.16 in 10.0 mi WNW 8.1 mph - N/A   Scattered Clouds
8:58 AM 32.7 °F 27.3 °F 24.1 °F 71% 30.17 in 10.0 mi WNW 5.8 mph - N/A   Partly Cloudy
9:58 AM 34.3 °F 29.2 °F 25.3 °F 70% 30.18 in 10.0 mi West 5.8 mph - N/A   Scattered Clouds
10:58 AM 37.8 °F 31.3 °F 26.2 °F 63% 30.20 in 10.0 mi West 9.2 mph - N/A   Mostly Cloudy
11:58 AM 42.3 °F 35.5 °F 29.8 °F 61% 30.20 in 10.0 mi West 12.7 mph - N/A   Scattered Clouds
12:58 PM 44.1 °F 36.5 °F 28.8 °F 55% 30.19 in 10.0 mi West 17.3 mph - N/A   Scattered Clouds
1:58 PM 46.8 °F - 25.3 °F 43% 30.18 in 10.0 mi NW 24.2 mph 29.9 mph N/A   Scattered Clouds
2:58 PM 47.5 °F - 28.0 °F 47% 30.18 in 10.0 mi West 25.3 mph 32.2 mph N/A   Scattered Clouds
3:17 PM 46.4 °F 40.4 °F 24.8 °F 43% 30.15 in 10.0 mi NNW 13.8 mph 24.2 mph N/A   Scattered Clouds
3:58 PM 44.2 °F 37.0 °F 26.2 °F 49% 30.19 in 10.0 mi NW 16.1 mph 25.3 mph N/A   Overcast
4:58 PM 43.3 °F 35.2 °F 24.6 °F 48% 30.20 in 10.0 mi NW 18.4 mph 27.6 mph N/A   Mostly Cloudy
5:58 PM 41.5 °F 32.1 °F 25.2 °F 52% 30.22 in 10.0 mi NW 21.9 mph 24.2 mph N/A   Mostly Cloudy
6:58 PM 39.2 °F 30.8 °F 24.8 °F 56% 30.24 in 10.0 mi NW 15.0 mph 23.0 mph N/A   Clear
7:58 PM 36.9 °F 28.7 °F 24.8 °F 62% 30.27 in 10.0 mi NW 12.7 mph - N/A   Partly Cloudy
8:58 PM 34.7 °F 27.5 °F 24.4 °F 66% 30.30 in 10.0 mi NW 9.2 mph - N/A   Clear
9:58 PM 33.3 °F 26.4 °F 23.2 °F 67% 30.32 in 10.0 mi NW 8.1 mph - N/A   Clear
10:58 PM 32.0 °F 25.6 °F 22.6 °F 68% 30.32 in 10.0 mi WNW 6.9 mph - N/A   Clear
11:56 PM 32.0 °F 24.2 °F 23.0 °F 69% 30.31 in 10.0 mi WNW 9.2 mph - N/A   Clear